Evergreen, AL

3:28 AM CST on January 21, 2018 (GMT -0600)
Middleton

Weather History for KGZH - March, 2013

Change the Weather History Date:

Saturday, March 30, 2013

  Actual Average (KPRN) Record (KPRN)
Temperature  
Mean Temperature 62 °F -  
Max Temperature 79 °F 75 °F 87 °F (1963)
Min Temperature 46 °F 49 °F 32 °F (1964)
Degree Days  
Heating Degree Days 4    
Growing Degree Days 12 (Base 50)    
Moisture  
Dew Point 49 °F    
Average Humidity 71    
Maximum Humidity 93    
Minimum Humidity 37    
Precipitation  
Precipitation 0.00 in - - ()
Sea Level Pressure  
Sea Level Pressure 30.16 in    
Wind  
Wind Speed 3 mph (SSW)    
Max Wind Speed 15 mph    
Max Gust Speed 23 mph    
Visibility 7 miles    
Events      
Averages and records for this station are not official NWS values.
T = Trace of Precipitation, MM = Missing Value Source: NWS Daily Summary

Daily Weather History Graph

Daily Weather History Graph

Search for Another Location

Airport or City:

Trip Planner

Search our weather history database for the weather conditions in past years. The results will help you decide how hot, cold, wet, or windy it might be!

Date:

Astronomy

Mar. 30, 2013 Rise Set
Actual Time 6:39 AM CDT 7:06 PM CDT
Civil Twilight 6:14 AM CDT 7:30 PM CDT
Nautical Twilight 5:46 AM CDT 7:59 PM CDT
Astronomical Twilight 5:17 AM CDT 8:28 PM CDT
Moon 10:57 PM CDT (3/30) 8:48 AM CDT (3/30)
Length of Visible Light 13h 16m
Length of Day
12h 27m
Waning Gibbous, 86% of the Moon is Illuminated
Mar 30
Waning Gibbous
Apr 2
Last Quarter
Apr 10
New
Apr 18
First Quarter
Apr 25
Full

Hourly Weather History & Observations

Time (CDT) Temp. Windchill Dew Point Humidity Pressure Visibility Wind Dir Wind Speed Gust Speed Precip Events Conditions
12:53 AM 57.0 °F - 50.0 °F 77% 30.22 in 10.0 mi Calm Calm - N/A   Overcast
1:53 AM 54.0 °F - 48.9 °F 83% 30.21 in 10.0 mi Calm Calm - N/A   Partly Cloudy
2:53 AM 51.1 °F - 48.0 °F 89% 30.20 in 7.0 mi Calm Calm - N/A   Clear
3:53 AM 50.0 °F - 46.9 °F 89% 30.19 in 9.0 mi Calm Calm - N/A   Clear
4:36 AM 48.2 °F - 46.4 °F 93% 30.19 in 2.5 mi Calm Calm - N/A   Clear
4:45 AM 48.2 °F - 46.4 °F 93% 30.19 in 5.0 mi Calm Calm - N/A   Clear
4:53 AM 48.9 °F - 45.0 °F 86% 30.19 in 9.0 mi Calm Calm - N/A   Clear
5:53 AM 46.9 °F - 44.1 °F 90% 30.19 in 5.0 mi Calm Calm - N/A   Clear
6:41 AM 46.4 °F 44.3 °F 44.6 °F 93% 30.20 in 5.0 mi South 4.6 mph - N/A   Partly Cloudy
6:53 AM 46.0 °F - 44.1 °F 93% 30.20 in 4.0 mi Calm Calm - N/A   Mostly Cloudy
7:22 AM 48.2 °F - 46.4 °F 93% 30.20 in 2.5 mi Calm Calm - N/A   Scattered Clouds
7:30 AM 50.0 °F - 46.4 °F 87% 30.20 in 1.2 mi Calm Calm - N/A   Scattered Clouds
7:38 AM 50.0 °F - 46.4 °F 87% 30.21 in 3.0 mi Calm Calm - N/A   Partly Cloudy
7:51 AM 51.8 °F - 48.2 °F 88% 30.21 in 2.5 mi Calm Calm - N/A   Scattered Clouds
7:53 AM 52.0 °F - 48.9 °F 89% 30.21 in 2.5 mi Calm Calm - N/A   Partly Cloudy
8:03 AM 53.6 °F - 50.0 °F 88% 30.22 in 3.0 mi Calm Calm - N/A   Partly Cloudy
8:53 AM 57.9 °F - 54.0 °F 87% 30.22 in 7.0 mi Calm Calm - N/A   Clear
9:53 AM 68.0 °F - 53.1 °F 59% 30.21 in 10.0 mi WSW 5.8 mph - N/A   Clear
10:53 AM 71.1 °F - 52.0 °F 51% 30.19 in 10.0 mi SSW 5.8 mph - N/A   Clear
11:53 AM 73.0 °F - 50.0 °F 44% 30.18 in 10.0 mi South 10.4 mph 17.3 mph 0.00 in   Clear
12:53 PM 75.0 °F - 48.9 °F 40% 30.16 in 10.0 mi SSW 9.2 mph 18.4 mph 0.00 in   Clear
1:53 PM 77.0 °F - 48.9 °F 37% 30.13 in 10.0 mi South 11.5 mph - N/A   Partly Cloudy
2:53 PM 75.9 °F - 48.9 °F 38% 30.10 in 10.0 mi South 15.0 mph - N/A   Overcast
3:53 PM 75.9 °F - 48.9 °F 38% 30.09 in 10.0 mi SSW 13.8 mph 19.6 mph N/A   Mostly Cloudy
4:53 PM 73.9 °F - 48.9 °F 41% 30.08 in 10.0 mi SSW 12.7 mph - N/A   Overcast
5:53 PM 72.0 °F - 51.1 °F 48% 30.06 in 10.0 mi SSW 11.5 mph 23.0 mph N/A   Clear
6:53 PM 71.1 °F - 48.9 °F 45% 30.06 in 10.0 mi SSW 11.5 mph 18.4 mph N/A   Mostly Cloudy
7:53 PM 66.9 °F - 50.0 °F 54% 30.06 in 10.0 mi SW 5.8 mph - N/A   Partly Cloudy
8:53 PM 64.0 °F - 51.1 °F 63% 30.07 in 10.0 mi SSW 4.6 mph - N/A   Partly Cloudy
9:53 PM 63.0 °F - 53.1 °F 70% 30.09 in 10.0 mi South 4.6 mph - N/A   Mostly Cloudy
10:53 PM 63.0 °F - 54.0 °F 72% 30.08 in 10.0 mi South 4.6 mph - N/A   Partly Cloudy
11:53 PM 61.0 °F - 55.0 °F 81% 30.08 in 10.0 mi South 4.6 mph - N/A   Scattered Clouds